FW8660 Weather Reports


time (UTC)temp
F
wind
direction
speed
knots
gust
knots
rain 1hr
in
rain 24hr
in
rain mn
in
humidity
%
barometer
mb
20260507031533 59 63 1.7 3.5 0.00 0.00 0.00 82 1011.3
20260507030035 59 66 1.7 4.3 0.00 0.00 0.00 82 1011.2
20260507024530 59 70 2.6 3.5 0.00 0.00 0.00 82 1011.4
20260507023030 59 65 2.6 5.2 0.00 0.00 0.00 82 1011.4
20260507021527 60 87 2.6 5.2 0.00 0.00 0.00 82 1011.4
20260507020029 60 87 2.6 5.2 0.00 0.00 0.00 82 1011.6
20260507014529 60 95 3.5 5.2 0.00 0.00 0.00 82 1011.7
20260507013028 60 110 2.6 5.2 0.00 0.00 0.00 82 1012.0
20260507011531 60 101 2.6 5.2 0.00 0.00 0.00 82 1011.8
20260507010043 60 103 2.6 5.2 0.00 0.00 0.00 83 1011.7
20260507004533 60 100 2.6 5.2 0.00 0.00 0.00 83 1011.8
20260507003029 60 82 2.6 6.1 0.00 0.00 0.00 83 1011.8
20260507001531 60 93 2.6 5.2 0.00 0.00 0.00 84 1011.9
20260507000028 60 71 2.6 4.3 0.00 0.00 0.00 84 1012.1
20260506234531 61 95 2.6 6.1 0.00 0.00 0.00 84 1012.2
20260506233030 61 73 2.6 5.2 0.00 0.00 0.00 84 1012.3
20260506231531 61 82 2.6 4.3 0.00 0.00 0.00 84 1012.4
20260506230039 61 74 2.6 6.1 0.00 0.00 0.00 84 1012.3
20260506224536 61 90 1.7 4.3 0.00 0.00 0.00 84 1012.3
20260506223030 61 70 2.6 4.3 0.00 0.00 0.00 84 1012.3
20260506221528 61 62 1.7 4.3 0.00 0.00 0.00 84 1012.4
20260506220035 61 60 0.9 2.6 0.00 0.00 0.00 83 1012.3
20260506214529 61 110 1.7 3.5 0.00 0.00 0.00 83 1012.5
20260506213030 62 110 1.7 7.0 0.00 0.00 0.00 83 1012.7
20260506211533 62 80 2.6 4.3 0.00 0.00 0.00 83 1012.7
20260506210031 62 65 1.7 4.3 0.00 0.00 0.00 82 1012.7
20260506204534 62 64 2.6 4.3 0.00 0.00 0.00 82 1012.6
20260506203031 62 83 2.6 6.1 0.00 0.00 0.00 81 1012.5
20260506201537 62 83 2.6 7.0 0.00 0.00 0.00 81 1012.3
20260506200030 63 91 3.5 6.1 0.00 0.00 0.00 80 1012.0
20260506194528 63 80 4.3 10.4 0.00 0.00 0.00 80 1011.8
20260506193027 63 90 7.0 10.4 0.00 0.00 0.00 79 1011.8
20260506191530 64 80 6.1 10.4 0.00 0.00 0.00 77 1011.6
20260506190030 64 97 7.0 12.2 0.00 0.00 0.00 77 1011.6
20260506184532 64 88 8.7 13.0 0.00 0.00 0.00 76 1011.3
20260506183032 65 84 7.0 13.0 0.00 0.00 0.00 74 1011.2
20260506181531 65 101 8.7 13.0 0.00 0.00 0.00 73 1011.1
20260506180032 65 85 4.3 13.0 0.00 0.00 0.00 73 1011.2
20260506174533 65 76 8.7 15.6 0.00 0.00 0.00 72 1011.1
20260506173030 66 98 8.7 15.6 0.00 0.00 0.00 72 1011.0
20260506171539 66 148 7.0 14.8 0.00 0.00 0.00 71 1010.9
20260506170029 66 121 5.2 10.4 0.00 0.00 0.00 71 1011.0
20260506164531 67 148 8.7 15.6 0.00 0.00 0.00 69 1010.9
20260506163030 67 105 6.1 13.0 0.00 0.00 0.00 68 1010.7
20260506161532 66 96 10.4 19.1 0.00 0.00 0.00 69 1010.6
20260506160030 67 131 8.7 18.2 0.00 0.00 0.00 67 1010.7
20260506154534 68 131 7.8 16.5 0.00 0.00 0.00 67 1010.4
20260506153030 68 124 7.8 20.0 0.00 0.00 0.00 68 1010.6
20260506151533 68 105 10.4 16.5 0.00 0.00 0.00 67 1010.8
20260506150028 69 99 13.9 19.1 0.00 0.00 0.00 67 1010.7
20260506144531 69 105 13.9 20.0 0.00 0.00 0.00 68 1010.7
20260506143032 68 119 14.8 23.5 0.00 0.00 0.00 68 1010.7
20260506141528 69 128 13.0 22.6 0.00 0.00 0.00 68 1010.8
20260506140033 70 132 9.6 19.1 0.00 0.00 0.00 67 1011.0
20260506134528 69 135 10.4 18.2 0.00 0.00 0.00 67 1011.1
20260506133031 69 158 12.2 23.5 0.00 0.00 0.00 67 1011.1
20260506131534 71 118 8.7 20.0 0.00 0.00 0.00 66 1011.1
20260506130028 70 105 10.4 22.6 0.00 0.00 0.00 66 1011.1
20260506124533 71 88 8.7 21.7 0.00 0.00 0.00 63 1011.3
20260506123030 71 154 7.8 17.4 0.00 0.00 0.00 64 1011.4
20260506121529 70 142 8.7 20.0 0.00 0.00 0.00 65 1011.4
20260506120032 71 107 9.6 18.2 0.00 0.00 0.00 63 1011.6
20260506114536 70 104 10.4 16.5 0.00 0.00 0.00 62 1011.7
20260506113028 70 109 9.6 19.1 0.00 0.00 0.00 63 1011.8
20260506111527 70 82 7.8 14.8 0.00 0.00 0.00 64 1011.9
20260506110034 71 96 7.0 16.5 0.00 0.00 0.00 61 1011.9
20260506104531 70 78 8.7 15.6 0.00 0.00 0.00 62 1012.0
20260506103030 71 99 10.4 15.6 0.00 0.00 0.00 59 1012.1
20260506101530 69 66 6.1 12.2 0.00 0.00 0.00 62 1012.2
20260506100027 69 62 7.8 12.2 0.00 0.00 0.00 60 1012.2
20260506094531 68 33 4.3 10.4 0.00 0.00 0.00 66 1012.2
20260506093028 69 70 7.8 15.6 0.00 0.00 0.00 65 1012.1
20260506091529 67 50 7.0 10.4 0.00 0.00 0.00 67 1011.9
20260506090030 69 28 2.6 8.7 0.00 0.00 0.00 66 1011.9
20260506084529 66 0 0.9 3.5 0.00 0.00 0.00 66 1011.9
20260506083028 65 331 0.9 3.5 0.00 0.00 0.00 66 1011.9
20260506081528 64 237 2.6 6.1 0.00 0.00 0.00 65 1012.0
20260506073030 62 261 3.5 6.1 0.00 0.00 0.00 64 1011.9
20260506071531 62 273 4.3 7.0 0.00 0.00 0.00 65 1011.8
20260506061530 58 0 0.0 1.7 0.00 0.00 0.00 71 1011.7
20260506044536 56 59 0.9 2.6 0.00 0.00 0.00 72 1010.9
20260506043028 57 277 0.0 3.5 0.00 0.00 0.00 73 1010.8
20260506041528 57 281 0.9 2.6 0.00 0.00 0.00 74 1010.7
20260506040030 57 0 0.0 2.6 0.00 0.00 0.00 74 1010.7
20260506034530 57 268 0.0 1.7 0.00 0.00 0.00 74 1010.8
20260506033033 57 0 0.0 3.5 0.00 0.00 0.00 75 1010.9